User: anonymous   Login
Location: Caltech
(34.1382°N, 118.1253°W)
Time: 16:23:18
(UTC-07:00)
Language:

Cosmos 1937 Rocket - Orbit

View from above orbital plane
View from above orbital plane
View from above satellite
View from above satellite

Ground track
Ground track

The orbit data is extracted from the following two-line orbital elements,

1 19039U 88029B   17229.38977640  .00000067  00000-0  30615-4 0  9996
2 19039  74.0481 186.7234 0024064 341.7552 170.2596 14.38373455539653
Epoch (UTC): 17 August 2017 09:21:16
Eccentricity: 0.0024064
inclination: 74.0481°
perigee height: 746 km
apogee height: 781 km
right ascension of ascending node: 186.7234°
argument of perigee: 341.7552°
revolutions per day: 14.38373455
mean anomaly at epoch: 170.2596°
orbit number at epoch: 53965

The dashed part of the orbit path shows where the satellite is in the earth's shadow,  

DLR